This demonstration page uses our WeatherBlox Daily Observations layout. Learn more.

Left ArrowRight Arrow

Hourly Observations for June 28, 2017

Temp ( °F °C ) Dew Point ( °F °C ) Humidity (%) Winds ( mph kmh ) Pressure ( in mb ) Visibility ( mi km ) Precip ( " mm )
12:59 am 00:59 Mostly Clear 73 22.8 60 15.6 64 64 W 6 9 30.07 1018 10 16 0.00 0.00
1:59 am 01:59 Mostly Clear 71 21.7 60 15.6 68 68 N 7 11 30.09 1019 10 16 0.00 0.00
2:59 am 02:59 Mostly Clear 70 21.1 58 14.4 66 66 NNW 9 15 30.09 1019 10 16 0.00 0.00
3:59 am 03:59 Mostly Clear 73 22.8 58 14.4 59 59 N 13 20 30.11 1020 10 16 0.00 0.00
4:59 am 04:59 Mostly Clear 73 22.8 57 13.9 57 57 NNE 12 19 30.12 1020 10 16 0.00 0.00
5:59 am 05:59 Mostly Sunny 71 21.7 56 13.3 59 59 ENE 9 15 30.14 1021 10 16 0.00 0.00
6:59 am 06:59 Sunny 72 22.2 57 13.9 59 59 ENE 8 13 30.16 1021 10 16 0.00 0.00
7:59 am 07:59 Mostly Sunny 74 23.3 56 13.3 54 54 ENE 10 17 30.18 1022 10 16 0.00 0.00
8:59 am 08:59 Mostly Sunny 75 23.9 54 12.2 48 48 NE 12 19 30.19 1022 10 16 0.00 0.00
9:59 am 09:59 Mostly Sunny 77 25 53 11.7 43 43 NE 12 19 30.19 1022 10 16 0.00 0.00
10:59 am 10:59 Mostly Sunny 78 25.6 53 11.7 42 42 NE 9 15 30.21 1023 10 16 0.00 0.00
11:59 am 11:59 Mostly Sunny 80 26.7 54 12.2 41 41 NE 8 13 30.22 1023 10 16 0.00 0.00
12:59 pm 12:59 Mostly Sunny 79 26.1 51 10.6 38 38 E 6 9 30.21 1023 10 16 0.00 0.00
1:59 pm 13:59 Mostly Sunny 80 26.7 55 12.8 42 42 NE 12 19 30.21 1023 10 16 0.00 0.00
2:10 pm 14:10 Mostly Sunny 80 26.7 55 12.8 42 42 NE 12 19 30.21 1023 10 16 0.00 0.00
2:12 pm 14:12 Mostly Sunny 80 26.7 55 12.8 42 42 NE 12 19 30.21 1023 10 16 0.00 0.00
2:59 pm 14:59 Mostly Sunny 80 26.7 53 11.7 39 39 ENE 9 15 30.21 1023 10 16 0.00 0.00
3:59 pm 15:59 Mostly Sunny 80 26.7 55 12.8 42 42 ENE 10 17 30.20 1023 10 16 0.00 0.00
4:59 pm 16:59 Partly Cloudy 79 26.1 52 11.1 39 39 ENE 9 15 30.19 1022 10 16 0.00 0.00
5:59 pm 17:59 Partly Cloudy 79 26.1 53 11.7 41 41 E 9 15 30.18 1022 10 16 0.00 0.00
6:59 pm 18:59 Partly Cloudy 77 25 52 11.1 42 42 SE 8 13 30.19 1022 10 16 0.00 0.00
7:59 pm 19:59 Partly Cloudy 74 23.3 50 10 43 43 SE 8 13 30.19 1022 10 16 0.00 0.00
8:59 pm 20:59 Partly Cloudy 71 21.7 52 11.1 51 51 SE 3 6 30.19 1022 10 16 0.00 0.00
9:59 pm 21:59 Partly Cloudy 70 21.1 40 4.4 34 34 SSE 6 9 30.21 1023 10 16 0.00 0.00
10:59 pm 22:59 Mostly Clear 69 20.6 56 13.3 63 63 S 5 7 30.22 1024 10 16 0.00 0.00
11:59 pm 23:59 Mostly Clear 69 20.6 57 13.9 66 66 S 7 11 30.22 1023 10 16 0.00 0.00

Powered by AerisWeather